KB3AWQ Weather Reports


time (UTC)temp
C
wind
direction
speed
KPH
gust
KPH
rain 1hr
cm
rain 24hr
cm
rain mn
cm
humidity
%
barometer
mb
20260510033426 11 0 0.0 0.0 0.00 0.00 0.99 99 1010.0
20260510032926 11 0 0.0 0.0 0.00 0.00 0.99 99 1010.0
20260510032427 11 0 0.0 0.0 0.00 0.00 0.99 99 1010.0
20260510031926 11 288 0.0 1.6 0.00 0.00 0.99 99 1010.0
20260510031426 11 235 0.0 1.6 0.00 0.00 0.99 99 1010.0
20260510030926 11 312 0.0 3.2 0.00 0.00 0.99 98 1009.8
20260510030426 11 297 0.0 1.6 0.00 0.00 0.99 98 1009.7
20260510025929 11 0 0.0 0.0 0.00 0.00 0.99 98 1009.5
20260510025433 11 323 0.0 1.6 0.00 0.00 0.99 98 1009.6
20260510024926 12 308 1.6 3.2 0.00 0.00 0.99 97 1009.4
20260510024426 12 0 0.0 0.0 0.00 0.00 0.99 97 1009.1
20260510023926 12 25 1.6 1.6 0.00 0.00 0.99 97 1009.0
20260510023428 12 54 0.0 1.6 0.00 0.00 0.99 97 1009.0
20260510022926 12 45 1.6 3.2 0.00 0.00 0.99 97 1009.1
20260510022426 12 124 0.0 0.0 0.00 0.00 0.99 96 1009.2
20260510021927 12 0 0.0 0.0 0.00 0.00 0.99 95 1009.1
20260510021426 12 16 1.6 4.8 0.00 0.00 0.99 96 1009.2
20260510020926 12 0 0.0 0.0 0.00 0.00 0.99 96 1009.3
20260510020426 12 0 0.0 0.0 0.00 0.00 0.99 95 1009.2
20260510015926 12 0 0.0 0.0 0.00 0.00 0.99 95 1009.3
20260510015426 13 0 0.0 0.0 0.00 0.00 0.99 95 1009.3
20260510014926 13 28 3.2 3.2 0.00 0.00 0.99 94 1009.3
20260510014427 13 0 0.0 0.0 0.00 0.00 0.99 94 1009.3
20260510013926 13 0 0.0 0.0 0.00 0.00 0.99 93 1009.2
20260510013426 13 64 0.0 0.0 0.00 0.00 0.99 93 1009.1
20260510012927 13 51 0.0 1.6 0.00 0.00 0.99 93 1009.0
20260510012427 13 113 0.0 0.0 0.00 0.00 0.99 94 1008.9
20260510011927 13 58 1.6 3.2 0.00 0.00 0.99 95 1008.8
20260510011426 13 0 0.0 0.0 0.00 0.00 0.99 94 1008.9
20260510010927 13 26 1.6 3.2 0.00 0.00 0.99 94 1008.8
20260510010426 13 5 0.0 3.2 0.00 0.00 0.99 94 1008.7
20260510005926 13 37 3.2 3.2 0.00 0.00 0.99 94 1008.5
20260510005427 13 0 0.0 0.0 0.00 0.00 0.99 95 1008.5
20260510004926 13 0 0.0 0.0 0.00 0.00 0.99 95 1008.6
20260510004426 13 29 1.6 3.2 0.00 0.00 0.99 95 1008.5
20260510003926 13 27 0.0 0.0 0.00 0.00 0.99 95 1008.4
20260510003426 13 0 0.0 0.0 0.00 0.00 0.99 95 1008.3
20260510002926 13 207 0.0 1.6 0.00 0.00 0.99 94 1008.3
20260510002426 13 0 0.0 0.0 0.00 0.00 0.99 93 1008.2
20260510001928 14 0 0.0 0.0 0.00 0.00 0.99 92 1008.1
20260510001426 14 49 1.6 3.2 0.00 0.00 0.99 92 1008.1
20260510000926 14 0 0.0 0.0 0.00 0.00 0.99 92 1008.1
20260510000426 14 0 0.0 0.0 0.00 0.00 0.99 91 1008.0
20260509235926 15 0 0.0 0.0 0.00 0.00 0.99 91 1007.9
20260509235426 15 0 0.0 0.0 0.00 0.00 0.99 90 1007.8
20260509234927 15 0 0.0 0.0 0.00 0.00 0.99 90 1007.8
20260509234426 15 0 0.0 0.0 0.00 0.00 0.99 90 1007.8
20260509233926 15 0 0.0 0.0 0.00 0.00 0.99 89 1007.8
20260509233426 15 50 0.0 1.6 0.00 0.00 0.99 88 1007.6
20260509232926 15 39 3.2 3.2 0.00 0.00 0.99 88 1007.7
20260509232427 15 307 0.0 0.0 0.00 0.00 0.99 87 1007.7
20260509231926 15 156 1.6 1.6 0.00 0.00 0.99 88 1007.8
20260509231426 15 52 0.0 1.6 0.00 0.00 0.99 88 1007.7
20260509230926 15 34 3.2 4.8 0.00 0.00 0.99 87 1007.8
20260509225937 15 226 0.0 3.2 0.00 0.00 0.99 88 1007.8
20260509225426 16 40 1.6 3.2 0.00 0.00 0.99 88 1007.8
20260509224926 16 84 3.2 4.8 0.00 0.00 0.99 88 1007.8
20260509224428 16 53 3.2 3.2 0.00 0.00 0.99 87 1007.8
20260509223927 15 52 4.8 6.4 0.00 0.00 0.99 89 1007.8
20260509223426 15 88 6.4 8.0 0.00 0.00 0.99 88 1007.8
20260509222926 15 84 4.8 8.0 0.00 0.00 0.99 89 1007.9
20260509222426 15 60 4.8 6.4 0.00 0.00 0.99 89 1007.9
20260509221926 15 88 3.2 3.2 0.00 0.00 0.99 89 1007.9
20260509221426 15 44 4.8 4.8 0.00 0.00 0.99 89 1007.9
20260509220926 16 48 3.2 6.4 0.00 0.00 0.99 88 1007.8
20260509220427 16 61 3.2 4.8 0.00 0.00 0.99 88 1007.9
20260509215926 15 17 1.6 3.2 0.00 0.00 0.99 86 1008.1
20260509215426 15 0 0.0 0.0 0.00 0.00 0.99 88 1008.1
20260509214926 15 0 0.0 0.0 0.00 0.00 0.99 87 1008.2
20260509214426 15 140 1.6 3.2 0.00 0.00 0.99 87 1008.1
20260509213927 15 227 1.6 3.2 0.00 0.00 0.99 87 1008.1
20260509213427 16 42 1.6 3.2 0.00 0.00 0.99 87 1008.1
20260509212927 16 35 0.0 1.6 0.00 0.00 0.99 88 1008.2
20260509212426 15 249 0.0 1.6 0.00 0.00 0.99 87 1008.3
20260509211926 15 61 1.6 3.2 0.00 0.00 0.99 88 1008.3
20260509211426 15 0 0.0 0.0 0.00 0.00 0.99 89 1008.4
20260509210926 15 0 0.0 0.0 0.00 0.00 0.99 90 1008.5
20260509210426 15 0 0.0 0.0 0.00 0.00 0.99 92 1008.5
20260509205926 15 310 0.0 1.6 0.00 0.00 0.99 91 1008.5
20260509205427 15 332 1.6 3.2 0.00 0.00 0.99 91 1008.5
20260509204926 15 21 1.6 3.2 0.00 0.00 0.99 89 1008.5
20260509204426 15 0 0.0 0.0 0.03 0.00 0.99 93 1008.5
20260509203926 14 288 0.0 1.6 0.03 0.00 0.99 92 1008.6
20260509203427 14 71 0.0 1.6 0.08 0.00 0.99 93 1008.6
20260509202926 14 0 0.0 0.0 0.08 0.00 0.99 94 1008.6
20260509202426 14 0 0.0 0.0 0.08 0.00 0.99 96 1008.6
20260509201504 13 0 0.0 0.0 0.08 0.00 0.99 96 1008.7
20260509200926 13 0 0.0 0.0 0.08 0.00 0.99 96 1008.8
20260509200426 13 226 1.6 3.2 0.08 0.00 0.99 95 1008.9
20260509195926 13 32 0.0 0.0 0.05 0.00 0.99 96 1008.9
20260509195426 13 0 0.0 0.0 0.05 0.00 0.99 96 1009.0
20260509194927 13 0 0.0 0.0 0.05 0.00 0.99 96 1009.1
20260509194426 13 224 3.2 4.8 0.03 0.00 0.99 95 1009.2
20260509193926 13 0 0.0 0.0 0.03 0.00 0.99 96 1009.2
20260509193426 13 0 0.0 0.0 0.03 0.00 0.97 96 1009.2
20260509192926 13 0 0.0 0.0 0.03 0.00 0.97 96 1009.3
20260509192426 13 0 0.0 0.0 0.03 0.00 0.94 95 1009.3
20260509191926 13 203 0.0 1.6 0.05 0.00 0.94 94 1009.2
20260509191427 13 0 0.0 0.0 0.05 0.00 0.94 96 1009.2
20260509190926 13 0 0.0 0.0 0.08 0.00 0.94 97 1009.2
20260509190426 13 65 0.0 0.0 0.08 0.00 0.94 96 1009.3
20260509185926 12 0 0.0 0.0 0.08 0.00 0.94 97 1009.3
20260509185426 12 19 1.6 4.8 0.10 0.00 0.94 96 1009.3
20260509184927 12 0 0.0 0.0 0.10 0.00 0.94 98 1009.3
20260509184426 12 0 0.0 0.0 0.10 0.00 0.94 98 1009.3
20260509183927 12 48 0.0 1.6 0.10 0.00 0.94 98 1009.3
20260509183427 12 36 1.6 1.6 0.10 0.00 0.91 98 1009.3
20260509182926 12 61 0.0 0.0 0.10 0.00 0.91 99 1009.4
20260509182427 12 224 0.0 1.6 0.10 0.00 0.84 99 1009.4
20260509181926 12 0 0.0 0.0 0.10 0.00 0.81 99 1009.4
20260509181427 12 0 0.0 0.0 0.10 0.00 0.81 100 1009.4
20260509180926 12 320 1.6 3.2 0.10 0.00 0.81 100 1009.4
20260509180426 12 9 3.2 3.2 0.10 0.00 0.79 99 1009.4
20260509175928 12 42 0.0 3.2 0.13 0.00 0.76 99 1009.4
20260509175427 12 0 0.0 0.0 0.13 0.00 0.76 99 1009.4
20260509174926 12 44 1.6 1.6 0.15 0.00 0.76 99 1009.4
20260509174426 12 20 1.6 1.6 0.15 0.00 0.76 100 1009.3
20260509173926 12 0 0.0 0.0 0.18 0.00 0.76 99 1009.3
20260509173427 12 0 0.0 0.0 0.18 0.00 0.74 100 1009.4
20260509172927 12 0 0.0 0.0 0.20 0.00 0.74 100 1009.4
20260509172426 12 39 0.0 0.0 0.20 0.00 0.79 99 1009.4
20260509171926 12 0 0.0 0.0 0.20 0.00 0.76 100 1009.4
20260509171426 12 34 1.6 3.2 0.20 0.00 0.76 100 1009.4
20260509170926 12 0 0.0 0.0 0.20 0.00 0.74 99 1009.4
20260509170427 12 0 0.0 0.0 0.20 0.00 0.71 100 1009.4
20260509165926 11 14 1.6 3.2 0.18 0.00 0.74 100 1009.4
20260509165426 11 0 0.0 0.0 0.13 0.00 0.74 99 1009.4
20260509164926 11 49 1.6 3.2 0.13 0.00 0.71 100 1009.4
20260509164426 11 19 0.0 0.0 0.10 0.00 0.66 100 1009.4
20260509163926 11 17 1.6 1.6 0.08 0.00 0.64 99 1009.4
20260509163427 11 2 0.0 3.2 0.08 0.00 0.61 100 1009.4
20260509162926 11 12 0.0 0.0 0.05 0.00 0.61 99 1009.4
20260509162426 11 58 1.6 3.2 0.08 0.00 0.58 99 1009.4
20260509161926 11 0 0.0 0.0 0.08 0.00 0.58 99 1009.4
20260509161426 11 48 1.6 3.2 0.05 0.00 0.56 98 1009.5
20260509160926 11 44 3.2 4.8 0.08 0.00 0.56 98 1009.6
20260509160426 11 50 0.0 1.6 0.08 0.00 0.56 99 1009.6
20260509155927 11 42 0.0 1.6 0.08 0.00 0.53 98 1009.6
20260509155426 11 20 3.2 3.2 0.08 0.00 0.53 98 1009.6
20260509154926 11 29 0.0 3.2 0.10 0.00 0.51 99 1009.6
20260509154426 11 71 1.6 3.2 0.10 0.00 0.51 98 1009.6
20260509153926 11 8 0.0 0.0 0.10 0.00 0.51 100 1009.7
20260509153428 11 48 1.6 1.6 0.13 0.00 0.51 98 1009.8
20260509152927 11 27 1.6 3.2 0.13 0.00 0.51 100 1009.8
20260509152427 11 0 0.0 0.0 0.13 0.00 0.51 100 1009.8
20260509151926 11 7 1.6 3.2 0.13 0.00 0.51 100 1009.8
20260509151426 11 49 0.0 1.6 0.13 0.00 0.51 99 1010.0
20260509150926 11 359 3.2 3.2 0.10 0.00 0.51 98 1010.0
20260509150428 11 45 1.6 3.2 0.10 0.00 0.48 99 1010.0
20260509145926 10 80 3.2 4.8 0.10 0.00 0.48 100 1010.0
20260509145426 10 68 1.6 3.2 0.10 0.00 0.48 100 1010.0
20260509144926 10 329 0.0 0.0 0.08 0.00 0.46 100 1010.0
20260509144426 10 56 0.0 0.0 0.08 0.00 0.43 100 1010.0
20260509143926 10 83 1.6 4.8 0.10 0.00 0.43 100 1010.1
20260509143426 10 0 0.0 0.0 0.10 0.00 0.41 100 1010.1
20260509142926 10 74 1.6 3.2 0.10 0.00 0.41 100 1010.1
20260509142426 10 68 1.6 3.2 0.10 0.00 0.41 99 1010.0
20260509141926 10 58 1.6 1.6 0.10 0.00 0.41 99 1010.0
20260509141426 10 67 0.0 1.6 0.10 0.00 0.41 99 1010.0
20260509140927 10 44 3.2 3.2 0.10 0.00 0.41 100 1010.0
20260509140426 10 57 3.2 3.2 0.10 0.00 0.38 99 1010.1
20260509135926 10 22 1.6 3.2 0.08 0.00 0.38 99 1010.1
20260509135426 10 0 0.0 0.0 0.08 0.00 0.38 99 1010.1
20260509134927 10 89 0.0 1.6 0.08 0.00 0.36 99 1010.1
20260509134426 10 67 0.0 1.6 0.05 0.00 0.36 99 1010.1
20260509133926 10 0 0.0 0.0 0.05 0.00 0.36 99 1010.2
20260509133426 10 0 0.0 0.0 0.05 0.00 0.33 99 1010.2
20260509132926 10 0 0.0 0.0 0.05 0.00 0.33 99 1010.3
20260509132426 10 53 3.2 3.2 0.05 0.00 0.33 99 1010.3
20260509131929 10 61 1.6 3.2 0.05 0.00 0.33 99 1010.3
20260509131427 10 19 3.2 3.2 0.05 0.00 0.33 99 1010.3
20260509130926 10 45 0.0 1.6 0.05 0.00 0.33 99 1010.4
20260509130427 10 36 1.6 3.2 0.05 0.00 0.30 99 1010.4
20260509125926 10 0 0.0 0.0 0.05 0.00 0.30 99 1010.4
20260509125426 10 0 0.0 0.0 0.05 0.00 0.30 99 1010.4
20260509124926 10 60 1.6 3.2 0.03 0.00 0.30 99 1010.4
20260509124426 10 0 0.0 0.0 0.03 0.00 0.30 99 1010.5
20260509123927 10 0 0.0 0.0 0.03 0.00 0.30 99 1010.5
20260509123426 10 0 0.0 0.0 0.03 0.00 0.28 99 1010.5
20260509122928 10 0 0.0 0.0 0.03 0.00 0.28 99 1010.5
20260509122426 10 0 0.0 0.0 0.03 0.00 0.28 99 1010.5
20260509121926 10 0 0.0 0.0 0.03 0.00 0.28 99 1010.5
20260509121426 10 0 0.0 0.0 0.03 0.00 0.28 99 1010.5
20260509120926 10 0 0.0 0.0 0.03 0.00 0.25 99 1010.5
20260509120427 10 0 0.0 0.0 0.03 0.00 0.25 99 1010.5
20260509115926 10 0 0.0 0.0 0.03 0.00 0.25 99 1010.5
20260509115426 10 0 0.0 0.0 0.03 0.00 0.25 99 1010.5
20260509114926 10 0 0.0 0.0 0.03 0.00 0.25 99 1010.4
20260509114426 10 0 0.0 0.0 0.03 0.00 0.25 99 1010.5
20260509113927 10 0 0.0 0.0 0.03 0.00 0.25 99 1010.5
20260509113426 10 0 0.0 0.0 0.03 0.00 0.25 99 1010.5
20260509112928 10 0 0.0 0.0 0.03 0.00 0.25 99 1010.5
20260509112427 10 0 0.0 0.0 0.03 0.00 0.25 99 1010.5
20260509111926 10 0 0.0 0.0 0.03 0.00 0.25 99 1010.5
20260509111427 10 69 0.0 0.0 0.03 0.00 0.25 99 1010.4
20260509110926 10 0 0.0 0.0 0.03 0.00 0.25 99 1010.5
20260509110427 10 0 0.0 0.0 0.03 0.00 0.23 99 1010.5
20260509105927 10 32 3.2 4.8 0.03 0.00 0.23 99 1010.4
20260509105426 10 0 0.0 0.0 0.00 0.00 0.23 99 1010.5
20260509104926 10 0 0.0 0.0 0.00 0.00 0.23 99 1010.5
20260509104426 10 48 1.6 1.6 0.00 0.00 0.23 99 1010.5
20260509103926 10 0 0.0 0.0 0.00 0.00 0.23 99 1010.5
20260509103426 10 0 0.0 0.0 0.00 0.00 0.23 99 1010.5
20260509102926 10 0 0.0 0.0 0.00 0.00 0.23 99 1010.5
20260509102426 10 0 0.0 0.0 0.00 0.00 0.23 99 1010.4
20260509101926 10 0 0.0 0.0 0.00 0.00 0.23 99 1010.4
20260509101426 10 22 3.2 4.8 0.00 0.00 0.23 99 1010.3
20260509100926 10 57 1.6 3.2 0.00 0.00 0.23 99 1010.3
20260509100427 10 63 3.2 3.2 0.00 0.00 0.23 99 1010.2
20260509095926 10 34 0.0 0.0 0.00 0.00 0.20 99 1010.3
20260509095426 10 23 1.6 3.2 0.00 0.00 0.20 99 1010.3
20260509094926 10 40 0.0 1.6 0.03 0.00 0.20 99 1010.3
20260509094426 10 21 3.2 4.8 0.03 0.00 0.20 99 1010.4
20260509093928 10 0 0.0 0.0 0.03 0.00 0.20 99 1010.5
20260509093426 10 66 3.2 4.8 0.03 0.00 0.20 99 1010.5
20260509092927 10 36 1.6 3.2 0.03 0.00 0.20 99 1010.5
20260509092426 10 63 0.0 1.6 0.03 0.00 0.20 99 1010.6
20260509091926 10 0 0.0 0.0 0.03 0.00 0.20 99 1010.7
20260509091426 10 56 3.2 3.2 0.03 0.00 0.20 99 1010.8
20260509090926 10 44 0.0 1.6 0.03 0.00 0.20 99 1010.8
20260509090427 10 85 1.6 3.2 0.03 0.00 0.20 99 1010.7
20260509085926 10 49 1.6 3.2 0.00 0.00 0.20 99 1010.6
20260509085426 10 41 1.6 3.2 0.00 0.00 0.20 99 1010.7
20260509084928 10 22 3.2 4.8 0.00 0.00 0.20 99 1010.5
20260509084427 10 59 3.2 6.4 0.00 0.00 0.20 99 1010.5
20260509083926 10 27 3.2 6.4 0.00 0.00 0.20 99 1010.6
20260509083426 10 66 1.6 4.8 0.00 0.00 0.18 99 1010.6
20260509082926 10 22 1.6 4.8 0.00 0.00 0.18 99 1010.7
20260509082427 10 56 0.0 1.6 0.03 0.00 0.18 99 1010.5
20260509081926 10 44 0.0 3.2 0.03 0.00 0.18 99 1010.5
20260509081426 10 45 1.6 3.2 0.03 0.00 0.18 99 1010.5
20260509080926 10 51 1.6 4.8 0.05 0.00 0.18 99 1010.5
20260509080431 10 49 3.2 4.8 0.05 0.00 0.18 99 1010.5
20260509075926 10 36 3.2 3.2 0.05 0.00 0.18 99 1010.5
20260509075428 10 58 3.2 3.2 0.05 0.00 0.18 99 1010.7
20260509074927 10 23 0.0 3.2 0.08 0.00 0.18 99 1010.7
20260509074427 10 26 3.2 4.8 0.08 0.00 0.18 99 1010.7
20260509073926 10 87 3.2 6.4 0.08 0.00 0.18 99 1010.7
20260509073426 10 71 4.8 6.4 0.13 0.00 0.18 99 1010.7
20260509072932 10 23 3.2 6.4 0.13 0.00 0.18 99 1010.8
20260509072426 10 40 3.2 4.8 0.13 0.00 0.18 99 1010.8
20260509071926 10 54 1.6 3.2 0.13 0.00 0.20 99 1011.0
20260509071427 10 0 0.0 0.0 0.13 0.00 0.20 99 1011.0
20260509070927 10 0 0.0 0.0 0.13 0.00 0.20 99 1011.2
20260509070427 10 0 0.0 0.0 0.13 0.00 0.18 99 1011.2
20260509065926 10 0 0.0 0.0 0.08 0.00 0.18 99 1011.3
20260509065427 10 0 0.0 0.0 0.08 0.00 0.18 99 1011.4
20260509064926 10 0 0.0 0.0 0.08 0.00 0.15 99 1011.4
20260509064427 10 0 0.0 0.0 0.08 0.00 0.13 99 1011.5
20260509063926 10 0 0.0 0.0 0.08 0.00 0.13 99 1011.6
20260509063426 10 0 0.0 0.0 0.08 0.00 0.10 99 1011.7
20260509062926 10 0 0.0 0.0 0.05 0.00 0.10 99 1011.6
20260509062427 10 0 0.0 0.0 0.05 0.00 0.10 99 1011.6
20260509061927 10 0 0.0 0.0 0.05 0.00 0.08 99 1011.8
20260509061427 10 0 0.0 0.0 0.03 0.00 0.08 99 1011.9
20260509060926 10 0 0.0 0.0 0.03 0.00 0.08 99 1011.9
20260509060426 10 0 0.0 0.0 0.05 0.00 0.05 99 1011.9
20260509055926 10 0 0.0 0.0 0.03 0.00 0.05 99 1012.0
20260509055427 10 0 0.0 0.0 0.03 0.00 0.05 99 1011.9
20260509054926 10 0 0.0 0.0 0.03 0.00 0.05 99 1011.9
20260509054426 10 0 0.0 0.0 0.03 0.00 0.05 99 1011.9
20260509053926 10 0 0.0 0.0 0.03 0.00 0.05 99 1011.9
20260509053427 10 0 0.0 0.0 0.03 0.00 0.03 99 1012.0
20260509052926 10 0 0.0 0.0 0.03 0.00 0.03 99 1011.9
20260509052426 10 0 0.0 0.0 0.03 0.00 0.03 99 1011.9
20260509051927 10 0 0.0 0.0 0.03 0.00 0.03 99 1011.9
20260509051426 10 0 0.0 0.0 0.03 0.00 0.03 99 1011.9
20260509050926 10 0 0.0 0.0 0.03 0.00 0.03 99 1012.0
20260509050426 10 0 0.0 0.0 0.03 0.00 0.03 99 1012.0
20260509045927 10 0 0.0 0.0 0.05 0.00 0.03 99 1012.1
20260509045426 10 0 0.0 0.0 0.05 0.00 0.03 99 1012.1
20260509044926 10 0 0.0 0.0 0.05 0.00 0.03 99 1012.1
20260509044426 10 0 0.0 0.0 0.08 0.00 0.03 99 1012.1
20260509043927 10 0 0.0 0.0 0.08 0.00 0.03 99 1012.0
20260509043426 10 0 0.0 0.0 0.13 0.00 0.03 99 1012.0
20260509042926 10 0 0.0 0.0 0.13 0.00 0.03 99 1011.9
20260509042427 10 0 0.0 0.0 0.13 0.00 0.03 99 1011.8
20260509041926 10 0 0.0 0.0 0.13 0.00 0.00 99 1011.9
20260509041427 10 0 0.0 0.0 0.10 0.00 0.00 99 1011.8
20260509040927 10 20 3.2 4.8 0.08 0.00 0.00 99 1011.8
20260509040426 10 0 0.0 0.0 0.08 0.00 0.00 99 1011.8
20260509035927 10 0 0.0 0.0 0.05 0.00 0.43 99 1011.8
20260509035427 10 0 0.0 0.0 0.03 0.00 0.43 99 1011.8
20260509034926 10 0 0.0 0.0 0.03 0.00 0.41 99 1012.0
20260509034427 10 0 0.0 0.0 0.00 0.00 0.38 99 1012.1
20260509033926 10 0 0.0 0.0 0.00 0.00 0.38 99 1012.2